Weather in Ogorelyshi

Russia / Republic of Karelia     63°00′39″N   35°42′10″E
temp.,
°C
wind,
m/s
gust,
m/s
humid.,
%
clouds,
%
prec.,
mm/h
press.,
hPa
HPBL,
m
3 march, wed
wed300:00−8wnw3119333 0.0 1008301
03:00−8w399517 0.0 1008215
06:00−6w3109664 0.2 1006371
09:00−5wnw4109573 0.4 1005554
12:00−3w489296 0.2 1002617
15:00−2w489498 0.4 1001651
18:00−4wnw3896100 1.1 997451
21:00−5nnw2397100 1.5 99793
4 march, thu
thu400:00−8n3896100 0.2 997209
03:00−11nnw399793 0.2 999210
06:00−13nnw379778 0.0 999176
09:00−12nnw379673 0.1 1000211
12:00−8nnw259472 0.0 1000278
15:00−7nw259384 0.1 1001366
18:00−9nw259699 0.1 1001177
21:00−11nw269793 0.1 1001137
5 march, fri
fri500:00−12nw259778 0.0 1002152
03:00−13n379589 0.1 1004246
06:00−17nnw259890 0.0 1005103
09:00−16nnw389795 0.0 1007278
12:00−12nnw368861 0.0 1009431
15:00−10nw258731 0.0 1010555
18:00−12w259591 0.1 1009147
21:00−12wnw279693 0.1 1010237
6 march, sat
sat600:00−14nw239895 0.0 101073
03:00−15wnw229887 0.1 101022
06:00−16w229886 0.0 101023
09:00−15sw249791 0.0 1009115
12:00−11ssw379598 0.0 1007274
15:00−10ssw499498 0.0 1003473
18:00−9s41193100 0.1 999618
21:00−8sse51294100 0.9 993814
7 march, sun
sun700:00−8sse51293100 0.8 989830
03:00−8se51194100 1.6 986738
06:00−8ese51094100 0.8 983615
09:00−9ene51191100 1.1 983655
12:00−9ne61190100 0.3 986718
15:00−10ne71288100 0.4 989818
18:00−12nne61389100 0.2 993817
21:00−12n61389100 0.4 996896